Location: Zagreb
(45.8150°N, 15.9819°E)
Time: 13:46:43
(UTC+02:00)

STARLINK-1710 - Pass Details

Date: 20 September 2020
Orbit: 378 x 380 km, 53.0° (Epoch: 20 October)

Event Time Altitude Azimuth Distance (km) Brightness Sun altitude
Exits shadow 05:53:03 - 299° (WNW) 1,566 5.5 -9.1°
Reaches altitude 10° 05:53:32 10° 304° (NW) 1,401 5.3 -9.0°
Maximum altitude 05:56:02 21° 357° (N) 919 4.9 -8.6°
Drops below altitude 10° 05:58:31 10° 50° (NE) 1,402 6.8 -8.2°
Sets 06:00:53 0° 67° (ENE) 2,256 8.7 -7.8°
